Location: Hawks Ness
(60.2333°N, 1.1667°W)
Time: 11:18:19
(UTC+00:00)

IRS-1D - Pass Details

Date: 22 October 2019
Orbit: 740 x 817 km, 98.5° (Epoch: 20 November)

Event Time Altitude Azimuth Distance (km) Brightness Sun altitude
Rises 04:15:16 0° 18° (NNE) 3,308 7.2 -21.0°
Reaches altitude 10° 04:17:52 10° 7° (N) 2,363 6.3 -20.7°
Maximum altitude 04:22:18 29° 309° (NW) 1,392 4.5 -20.2°
Enters shadow 04:22:36 29° 303° (WNW) 1,396 4.5 -20.2°
